Location: Sarayc?k
(36.6500°N, 30.3667°E)
Time: 14:57:25
(UTC+00:00)

Daily predictions for brighter satellites

Satellite Brightness Start Highest point End
(mag) Time Altitude Azimuth Time Altitude Azimuth Time Altitude Azimuth
Cosmos 1340 3.8 16:16:32 10° NNE 16:19:38 24° ENE 16:22:43 10° SE
Cosmos 968 Rocket 3.9 16:15:59 10° SSW 16:21:10 71° WNW 16:26:27 10° NNE
COSMO-SKYMED 1 3.2 16:17:21 10° N 16:21:39 62° WNW 16:25:55 10° SSW
Cosmos 1842 3.4 16:20:18 10° N 16:24:10 54° E 16:28:00 10° SSE
Intelsat 5-1 Rocket 4.3 16:25:05 10° SSW 16:27:14 14° S 16:30:22 10° SE
Cosmos 2082 Rocket 2.2 16:25:46 10° NNW 16:31:29 71° ENE 16:37:07 10° SSE
CZ-4B R/B 2.4 16:30:00 10° NE 16:32:29 22° E 16:35:00 10° SSE
Feng Yun 1-1 Rocket 4.1 16:27:48 10° SSE 16:33:09 69° ENE 16:38:31 10° N
Cosmos 2221 Rocket 3.5 16:28:57 10° N 16:33:22 75° E 16:37:45 10° SSE
SJ-11-01 4.3 16:29:37 10° SSE 16:34:17 88° ENE 16:38:59 10° NNW
COSMOS 2406 3.9 16:29:18 10° NNW 16:34:57 59° WSW 16:40:33 10° S
CZ-4 R/B 1.5 16:31:17 10° SSE 16:34:59 49° ENE 16:38:42 10° N
Cosmos 1733 Rocket 3.2 16:30:54 10° S 16:35:12 78° W 16:39:32 10° N
Cosmos 1503 Rocket 4.1 16:31:20 10° S 16:36:26 56° ESE 16:41:30 10° NNE
Lacrosse 5 rocket 3.7 16:35:41 10° N 16:37:43 13° NNE 16:39:44 10° NE
ARGOS 3.1 16:33:13 10° SSE 16:38:34 86° ENE 16:43:57 10° NNW
Cosmos 1975 2.8 16:35:46 10° S 16:39:43 88° W 16:43:43 10° N
Okean 2 3.7 16:36:03 10° N 16:39:56 42° E 16:43:48 10° SSE
SL-4 R/B 4.3 16:38:40 10° W 16:41:00 17° SW 16:43:24 10° S
HJ-1C 3.5 16:41:25 10° SSE 16:44:35 48° ENE 16:47:45 10° N
H-2A R/B 1.9 16:42:26 10° NNE 16:46:38 86° E 16:50:45 10° SSW
Geosat 4.2 16:41:53 10° NNE 16:46:55 79° WNW 16:51:55 10° SSW
SEDSat Delta rocket 4.3 16:40:38 10° WSW 16:47:09 54° S 16:52:01 16° ESE
Cosmos 2074 Rocket 4.0 16:41:34 10° S 16:47:42 67° E 16:53:55 10° NNE
Cosmos 1943 Rocket 2.1 16:42:42 10° SSW 16:48:13 75° ESE 16:53:48 10° NNE
Okean-O 3.0 16:46:39 10° SE 16:50:50 43° ENE 16:55:02 10° N
OAO 2 Rocket 3.7 16:46:14 10° W 16:51:29 62° SSW 16:55:29 17° ESE
Cosmos 1354 Rocket 4.0 16:46:31 10° S 16:51:42 66° ESE 16:56:55 10° NNE
Cosmos 921 Rocket 3.9 16:48:12 10° NNW 16:52:21 50° WSW 16:56:25 10° S
Cosmos 2369 Rocket 2.7 16:47:19 10° SSE 16:52:25 35° ESE 16:57:31 10° NE
Cosmos 1400 Rocket 2.9 16:49:32 10° S 16:53:32 55° E 16:57:32 10° NNE
SJ-6B 4.5 16:53:50 17° ENE 16:54:18 17° ENE 16:56:58 10° NNE
Cosmos 2297 3.8 16:52:10 10° SSW 16:57:50 81° WNW 17:03:34 10° NNE
CZ-3B R/B 2.6 16:51:16 10° NW 16:58:52 64° SW 17:01:24 13° SSE
GENESIS II 4.2 16:58:23 10° SSW 17:02:06 53° ESE 17:05:51 10° NE
CZ-2C R/B 4.1 16:57:14 10° N 17:02:25 42° WNW 17:07:39 10° SW
CSL-04 Debris 4.3 16:59:27 10° SSE 17:04:41 53° ENE 17:09:55 10° N
Meteor 1-21 4.3 17:00:03 10° N 17:05:43 83° W 17:11:19 10° S
OBJECT-B 2.2 17:09:58 22° NE 17:09:58 22° NE 17:11:47 10° NNE
Cosmos 1805 4.1 17:09:59 28° E 17:09:59 28° E 17:12:58 10° NNE
Cosmos 1975 Rocket 4.0 17:11:37 10° NNE 17:15:15 27° ENE 17:15:15 27° ENE
BREEZE-M DEB (TANK) 3.0 17:13:48 10° NNW 17:15:12 28° NNE 17:15:12 28° NNE
COSMOS 2455 2.9 17:09:42 10° NNW 17:15:40 59° ENE 17:19:19 24° SE
ATLAS 2A CENTAUR R/B 3.5 17:10:36 10° WSW 17:16:02 22° SSW 17:17:39 16° SSE
Atlas Centaur 2 3.5 17:08:56 10° WSW 17:17:01 48° SSE 17:21:31 26° ESE
PSLV R/B 3.8 17:12:56 10° NNE 17:17:05 68° ESE 17:21:08 10° S
USA 186 3.4 17:19:53 19° NNE 17:19:53 19° NNE 17:21:02 10° N
Cosmos 2263 4.4 17:13:53 10° S 17:19:07 43° ESE 17:24:23 10° NE
Cosmos 1707 3.4 17:21:29 10° NNW 17:25:18 57° W 17:29:07 10° S
Cosmos 773 Rocket 4.2 17:22:47 10° N 17:27:53 48° ENE 17:29:21 38° ESE
Cosmos 1908 Rocket 4.3 17:24:17 10° SSW 17:28:40 56° W 17:33:05 10° N
Cosmos 1674 2.5 17:25:34 10° N 17:29:14 61° E 17:29:24 60° E
SeaSat 1 2.8 17:28:23 37° E 17:29:27 43° ENE 17:34:07 10° N
Cosmos 962 Rocket 4.5 17:25:43 10° SSE 17:31:44 55° E 17:37:44 10° NNE
ATLAS 3B CENTAUR R/B 3.1 17:31:43 10° SSW 17:31:54 10° SSW 17:31:54 10° SSW
Cosmos 1656 Rocket 3.7 17:27:35 10° S 17:33:02 54° ESE 17:38:25 10° NNE
USA 281 4.3 17:31:43 10° NE 17:44:53 - S 17:34:47 24° ENE
KORONAS-FOTON 3.6 17:36:09 10° N 17:39:55 89° W 17:40:15 73° S
Cosmos 783 Rocket 4.4 17:34:54 10° NNW 17:40:13 76° ENE 17:42:03 41° SSE
Cosmos 1346 Rocket 3.1 17:44:25 10° N 17:47:40 55° NNE 17:47:40 55° NNE
Ariane Rocket 4.0 17:50:30 30° NE 17:50:30 30° NE 17:53:48 10° N
USA 215 3.2 17:46:49 42° ESE 17:49:14 75° NE 17:55:48 10° NW
OAO 1 Rocket 4.3 17:45:22 10° W 17:50:43 76° S 17:51:25 65° ESE
Cosmos 1461 3.2 17:49:32 10° NW 17:53:23 53° WSW 17:53:33 53° SW
ATLAS CENTAUR R/B 1.5 17:48:53 10° NNW 17:53:39 84° ENE 17:53:53 80° ESE
CSL-04 Rocket 4.1 17:49:38 13° S 17:54:20 58° WSW 17:59:40 10° NNW
Cosmos 1626 3.4 17:50:50 10° N 17:52:54 32° N 17:52:54 32° N
SJ 16-02 1.4 17:51:14 10° SSW 17:55:38 78° WNW 18:00:05 10° NNE
OAO 3 Copernicus 4.3 17:56:14 10° W 18:01:07 69° SSW 18:01:07 69° SSW
SL-8 Rocket 3.9 18:02:43 55° SSE 18:03:59 69° E 18:10:15 10° NNE
Meteor 2-20 4.5 18:02:15 10° N 18:07:48 59° ENE 18:07:48 59° ENE
MOS 1 4.3 18:14:58 68° NNE 18:14:58 68° NNE 18:20:07 10° N
IRS-1A Rocket 4.3 18:15:40 68° NE 18:15:40 68° NE 18:21:02 10° N
Cosmos 1339 Rocket 4.3 18:11:25 10° N 18:17:19 75° NE 18:17:19 75° NE
Lacrosse 5 rocket 2.8 18:13:16 10° NW 18:16:05 36° NNW 18:16:05 36° NNW
Cosmos 2369 Rocket 4.0 18:31:34 10° WSW 18:36:26 29° WNW 18:41:19 10° N
Resurs 01 Rocket 4.1 18:46:34 16° NNW 18:46:34 16° NNW 18:47:28 10° NNW
Cosmos 2366 rocket 4.4 18:47:01 56° NW 18:47:01 56° NW 18:52:05 10° N
Atlas Centaur 2 3.7 18:58:15 10° WSW 19:04:05 42° SW 19:04:05 42° SW
CZ-3 Stage 3 3.8 18:52:51 10° WSW 19:08:07 47° SW 19:08:07 47° SW
USA 281 4.2 19:15:55 10° N 19:21:34 42° NW 19:21:34 42° NW
